Location: Ballingbuur
(53.0000°N, 5.7667°E)
Time: 13:50:20
(UTC+00:00)

USA 290 - Visible Passes

Search period start: 20 April 2021 00:00
Search period end: 30 April 2021 00:00
Orbit: 401 x 415 km, 73.6° (Epoch: 10 April)

Date Brightness Start Highest point End Pass type
(mag) Time Alt. Az. Time Alt. Az. Time Alt. Az.
20 Apr 4.2 23:08:32 10° N 23:10:46 27° NNE 23:10:46 27° NNE visible
21 Apr 5.0 00:43:08 10° NW 00:43:33 12° NW 00:43:33 12° NW visible
21 Apr 4.7 22:19:57 10° N 22:22:02 15° NE 22:22:21 15° NE visible
21 Apr 4.3 23:53:35 10° NNW 23:55:07 25° NW 23:55:07 25° NW visible
22 Apr 3.8 23:04:26 10° NNW 23:06:43 36° N 23:06:43 36° N visible
23 Apr 4.2 22:15:36 10° N 22:18:18 23° NE 22:18:19 23° NE visible
23 Apr 4.5 23:49:49 10° NW 23:51:06 20° NW 23:51:06 20° NW visible
24 Apr 4.9 21:27:21 10° NNE 21:28:45 12° NE 21:29:57 11° ENE visible
24 Apr 3.5 23:00:27 10° NNW 23:02:44 41° NNW 23:02:44 41° NNW visible
25 Apr 3.4 22:11:26 10° NNW 22:14:22 35° NE 22:14:22 35° NE visible
25 Apr 4.8 23:46:16 10° NW 23:47:09 15° WNW 23:47:09 15° WNW visible
26 Apr 4.4 21:22:45 10° N 21:25:04 18° NE 21:26:02 16° ENE visible
26 Apr 3.6 22:56:35 10° NW 22:58:49 35° WNW 22:58:49 35° WNW visible
27 Apr 2.5 22:07:22 10° NNW 22:10:30 60° NE 22:10:30 60° NE visible
27 Apr 5.2 23:43:15 10° WNW 23:43:16 10° WNW 23:43:16 10° WNW visible
28 Apr 3.8 21:18:28 10° N 21:21:18 26° NE 21:22:12 23° E visible
28 Apr 4.0 22:52:53 10° NW 22:54:58 25° W 22:54:58 25° W visible
29 Apr 4.7 20:30:02 10° NNE 20:31:48 14° NE 20:33:34 10° ENE visible
29 Apr 2.2 22:03:25 10° NNW 22:06:42 74° WSW 22:06:42 74° WSW visible
